| time (UTC) | temp C | wind direction | speed KPH | gust KPH | rain 1hr cm | rain 24hr cm | rain mn cm | humidity % | barometer mb |
| 20260906175355 | 35 | 128 | 3.2 | 4.8 | 0.00 | 0.00 | 0.00 | 52 | 1015.5 |
| 20260906174855 | 35 | 128 | 0.0 | 9.7 | 0.00 | 0.00 | 0.00 | 52 | 1015.5 |
| 20260906174354 | 35 | 99 | 3.2 | 9.7 | 0.00 | 0.00 | 0.00 | 52 | 1015.5 |
| 20260906173854 | 34 | 119 | 3.2 | 6.4 | 0.00 | 0.00 | 0.00 | 53 | 1015.5 |
| 20260906173353 | 34 | 115 | 1.6 | 6.4 | 0.00 | 0.00 | 0.00 | 54 | 1015.8 |
| 20260906172832 | 33 | 128 | 1.6 | 4.8 | 0.00 | 0.00 | 0.00 | 56 | 1015.8 |
| 20260906172331 | 33 | 120 | 0.0 | 4.8 | 0.00 | 0.00 | 0.00 | 55 | 1015.9 |
| 20260906171830 | 33 | 117 | 3.2 | 4.8 | 0.00 | 0.00 | 0.00 | 55 | 1015.9 |
| 20260906171330 | 33 | 117 | 1.6 | 4.8 | 0.00 | 0.00 | 0.00 | 56 | 1016.0 |
| 20260906170830 | 33 | 114 | 1.6 | 4.8 | 0.00 | 0.00 | 0.00 | 57 | 1016.0 |
| 20260906170329 | 33 | 113 | 1.6 | 4.8 | 0.00 | 0.00 | 0.00 | 57 | 1016.2 |
| 20260906165829 | 33 | 113 | 1.6 | 6.4 | 0.00 | 0.00 | 0.00 | 57 | 1016.1 |
| 20260906165328 | 33 | 106 | 3.2 | 9.7 | 0.00 | 0.00 | 0.00 | 57 | 1016.2 |
| 20260906164828 | 32 | 95 | 4.8 | 9.7 | 0.00 | 0.00 | 0.00 | 58 | 1016.1 |
| 20260906164328 | 32 | 95 | 3.2 | 9.7 | 0.00 | 0.00 | 0.00 | 58 | 1016.2 |
| 20260906163827 | 32 | 125 | 1.6 | 9.7 | 0.00 | 0.00 | 0.00 | 59 | 1016.3 |
| 20260906163327 | 32 | 118 | 3.2 | 9.7 | 0.00 | 0.00 | 0.00 | 60 | 1016.4 |
| 20260906162826 | 32 | 140 | 3.2 | 9.7 | 0.00 | 0.00 | 0.00 | 61 | 1016.4 |
| 20260906162326 | 31 | 107 | 3.2 | 8.0 | 0.00 | 0.00 | 0.00 | 60 | 1016.4 |
| 20260906161825 | 31 | 126 | 1.6 | 8.0 | 0.00 | 0.00 | 0.00 | 62 | 1016.4 |
| 20260906161325 | 31 | 122 | 0.0 | 6.4 | 0.00 | 0.00 | 0.00 | 62 | 1016.4 |
| 20260906160824 | 31 | 122 | 0.0 | 6.4 | 0.00 | 0.00 | 0.00 | 63 | 1016.4 |
| 20260906160324 | 31 | 129 | 1.6 | 6.4 | 0.00 | 0.00 | 0.00 | 63 | 1016.4 |
| 20260906155824 | 31 | 137 | 0.0 | 6.4 | 0.00 | 0.00 | 0.00 | 64 | 1016.4 |
| 20260906155323 | 31 | 112 | 3.2 | 6.4 | 0.00 | 0.00 | 0.00 | 65 | 1016.3 |
| 20260906154802 | 30 | 109 | 3.2 | 6.4 | 0.00 | 0.00 | 0.00 | 66 | 1016.2 |
| 20260906154301 | 30 | 126 | 3.2 | 9.7 | 0.00 | 0.00 | 0.00 | 67 | 1016.2 |
| 20260906153801 | 30 | 101 | 4.8 | 9.7 | 0.00 | 0.00 | 0.00 | 68 | 1016.1 |
| 20260906153240 | 30 | 99 | 3.2 | 9.7 | 0.00 | 0.00 | 0.00 | 69 | 1016.1 |
| 20260906152718 | 30 | 101 | 3.2 | 9.7 | 0.00 | 0.00 | 0.00 | 69 | 1016.0 |
| 20260906152217 | 30 | 109 | 1.6 | 6.4 | 0.00 | 0.00 | 0.00 | 70 | 1016.0 |
| 20260906151656 | 30 | 113 | 4.8 | 6.4 | 0.00 | 0.00 | 0.00 | 71 | 1016.1 |
| 20260906151134 | 29 | 105 | 1.6 | 6.4 | 0.00 | 0.00 | 0.00 | 72 | 1016.0 |
| 20260906150612 | 29 | 106 | 1.6 | 9.7 | 0.00 | 0.00 | 0.00 | 73 | 1015.9 |
| 20260906150051 | 29 | 107 | 3.2 | 9.7 | 0.00 | 0.00 | 0.00 | 73 | 1015.9 |
| 20260906145550 | 29 | 101 | 3.2 | 4.8 | 0.00 | 0.00 | 0.00 | 74 | 1016.1 |
| 20260906145049 | 28 | 103 | 1.6 | 6.4 | 0.00 | 0.00 | 0.00 | 73 | 1015.9 |
| 20260906144549 | 28 | 102 | 1.6 | 6.4 | 0.00 | 0.00 | 0.00 | 74 | 1016.0 |
| 20260906144049 | 28 | 99 | 1.6 | 4.8 | 0.00 | 0.00 | 0.00 | 75 | 1015.9 |
| 20260906143548 | 28 | 94 | 1.6 | 4.8 | 0.00 | 0.00 | 0.00 | 76 | 1016.1 |
| 20260906143048 | 27 | 90 | 0.0 | 4.8 | 0.00 | 0.00 | 0.00 | 77 | 1016.1 |
| 20260906142527 | 27 | 90 | 1.6 | 4.8 | 0.00 | 0.00 | 0.00 | 78 | 1016.1 |
| 20260906142005 | 27 | 93 | 1.6 | 4.8 | 0.00 | 0.00 | 0.00 | 80 | 1016.1 |
| 20260906141444 | 27 | 95 | 0.0 | 3.2 | 0.00 | 0.00 | 0.00 | 81 | 1016.1 |
| 20260906140943 | 26 | 95 | 0.0 | 3.2 | 0.00 | 0.00 | 0.00 | 82 | 1016.1 |
| 20260906140422 | 26 | 95 | 0.0 | 3.2 | 0.00 | 0.00 | 0.00 | 83 | 1016.0 |
| 20260906135921 | 26 | 95 | 1.6 | 4.8 | 0.00 | 0.00 | 0.00 | 85 | 1016.0 |
| 20260906135421 | 25 | 95 | 0.0 | 4.8 | 0.00 | 0.00 | 0.00 | 85 | 1016.0 |
| 20260906134920 | 25 | 95 | 3.2 | 3.2 | 0.00 | 0.00 | 0.00 | 86 | 1015.9 |
| 20260906134359 | 25 | 95 | 0.0 | 3.2 | 0.00 | 0.00 | 0.00 | 86 | 1015.9 |
| 20260906133858 | 25 | 95 | 0.0 | 3.2 | 0.00 | 0.00 | 0.00 | 87 | 1015.8 |
| 20260906133358 | 24 | 95 | 0.0 | 4.8 | 0.00 | 0.00 | 0.00 | 87 | 1015.9 |
| 20260906132857 | 24 | 107 | 0.0 | 0.0 | 0.00 | 0.00 | 0.00 | 87 | 1015.9 |
| 20260906132357 | 24 | 109 | 0.0 | 0.0 | 0.00 | 0.00 | 0.00 | 87 | 1015.8 |
| 20260906131835 | 23 | 109 | 0.0 | 0.0 | 0.00 | 0.00 | 0.00 | 87 | 1015.7 |
| 20260906131335 | 23 | 109 | 0.0 | 0.0 | 0.00 | 0.00 | 0.00 | 88 | 1015.5 |
| 20260906130835 | 23 | 110 | 0.0 | 0.0 | 0.00 | 0.00 | 0.00 | 87 | 1015.5 |
| 20260906130334 | 23 | 109 | 0.0 | 0.0 | 0.00 | 0.00 | 0.00 | 87 | 1015.5 |
| 20260906125834 | 23 | 118 | 0.0 | 0.0 | 0.00 | 0.00 | 0.00 | 87 | 1015.5 |
| 20260906125333 | 23 | 118 | 0.0 | 0.0 | 0.00 | 0.00 | 0.00 | 88 | 1015.5 |
| 20260906124811 | 23 | 118 | 0.0 | 0.0 | 0.00 | 0.00 | 0.00 | 87 | 1015.4 |
| 20260906124250 | 23 | 118 | 0.0 | 0.0 | 0.00 | 0.00 | 0.00 | 88 | 1015.3 |
| 20260906123728 | 23 | 118 | 0.0 | 0.0 | 0.00 | 0.00 | 0.00 | 87 | 1015.2 |
| 20260906123228 | 23 | 118 | 0.0 | 0.0 | 0.00 | 0.00 | 0.00 | 87 | 1015.1 |
| 20260906122707 | 23 | 118 | 0.0 | 0.0 | 0.00 | 0.00 | 0.00 | 87 | 1015.1 |
| 20260906122145 | 23 | 118 | 0.0 | 0.0 | 0.00 | 0.00 | 0.00 | 87 | 1015.1 |
| 20260906121624 | 23 | 118 | 0.0 | 0.0 | 0.00 | 0.00 | 0.00 | 87 | 1015.1 |
| 20260906121123 | 23 | 118 | 0.0 | 0.0 | 0.00 | 0.00 | 0.00 | 86 | 1015.0 |
| 20260906120623 | 23 | 118 | 0.0 | 0.0 | 0.00 | 0.00 | 0.00 | 86 | 1014.9 |
| 20260906120123 | 23 | 118 | 0.0 | 0.0 | 0.00 | 0.00 | 0.00 | 86 | 1014.9 |
| 20260906115622 | 23 | 118 | 0.0 | 0.0 | 0.00 | 0.00 | 0.00 | 86 | 1014.8 |
| 20260906115122 | 23 | 118 | 0.0 | 0.0 | 0.00 | 0.00 | 0.00 | 86 | 1014.6 |
| 20260906114621 | 23 | 118 | 0.0 | 0.0 | 0.00 | 0.00 | 0.00 | 86 | 1014.7 |
| 20260906114121 | 23 | 118 | 0.0 | 0.0 | 0.00 | 0.00 | 0.00 | 86 | 1014.6 |
| 20260906113559 | 23 | 112 | 0.0 | 0.0 | 0.00 | 0.00 | 0.00 | 86 | 1014.7 |
| 20260906113058 | 23 | 112 | 0.0 | 0.0 | 0.00 | 0.00 | 0.00 | 86 | 1014.6 |
| 20260906112558 | 23 | 112 | 0.0 | 0.0 | 0.00 | 0.00 | 0.00 | 86 | 1014.6 |
| 20260906112057 | 23 | 112 | 0.0 | 0.0 | 0.00 | 0.00 | 0.00 | 86 | 1014.5 |
| 20260906111557 | 23 | 112 | 0.0 | 0.0 | 0.00 | 0.00 | 0.00 | 86 | 1014.5 |
| 20260906111056 | 23 | 112 | 0.0 | 0.0 | 0.00 | 0.00 | 0.00 | 86 | 1014.5 |
| 20260906110556 | 23 | 109 | 0.0 | 0.0 | 0.00 | 0.00 | 0.00 | 86 | 1014.4 |
| 20260906110055 | 23 | 109 | 0.0 | 0.0 | 0.00 | 0.00 | 0.00 | 86 | 1014.5 |
| 20260906105555 | 23 | 109 | 0.0 | 0.0 | 0.00 | 0.00 | 0.00 | 86 | 1014.5 |
| 20260906105054 | 23 | 109 | 0.0 | 0.0 | 0.00 | 0.00 | 0.00 | 86 | 1014.5 |
| 20260906104553 | 23 | 109 | 0.0 | 0.0 | 0.00 | 0.00 | 0.00 | 86 | 1014.4 |
| 20260906104053 | 23 | 109 | 0.0 | 0.0 | 0.00 | 0.00 | 0.00 | 86 | 1014.5 |
| 20260906103552 | 23 | 109 | 0.0 | 0.0 | 0.00 | 0.00 | 0.00 | 85 | 1014.3 |
| 20260906103031 | 23 | 109 | 0.0 | 0.0 | 0.00 | 0.00 | 0.00 | 85 | 1014.3 |
| 20260906102509 | 23 | 109 | 0.0 | 0.0 | 0.00 | 0.00 | 0.00 | 85 | 1014.5 |
| 20260906102009 | 23 | 109 | 0.0 | 0.0 | 0.00 | 0.00 | 0.00 | 85 | 1014.4 |
| 20260906101509 | 23 | 109 | 0.0 | 0.0 | 0.00 | 0.00 | 0.00 | 85 | 1014.4 |
| 20260906100948 | 23 | 109 | 0.0 | 0.0 | 0.00 | 0.00 | 0.00 | 85 | 1014.4 |
| 20260906100447 | 23 | 109 | 0.0 | 0.0 | 0.00 | 0.00 | 0.00 | 85 | 1014.3 |
| 20260906095946 | 23 | 109 | 0.0 | 0.0 | 0.00 | 0.00 | 0.00 | 85 | 1014.3 |
| 20260906095446 | 23 | 109 | 0.0 | 0.0 | 0.00 | 0.00 | 0.00 | 85 | 1014.4 |
| 20260906094924 | 23 | 109 | 0.0 | 0.0 | 0.00 | 0.00 | 0.00 | 85 | 1014.3 |
| 20260906094403 | 23 | 109 | 0.0 | 0.0 | 0.00 | 0.00 | 0.00 | 84 | 1014.2 |
| 20260906093841 | 23 | 109 | 0.0 | 0.0 | 0.00 | 0.00 | 0.00 | 84 | 1014.2 |
| 20260906093341 | 23 | 109 | 0.0 | 0.0 | 0.00 | 0.00 | 0.00 | 84 | 1014.2 |
| 20260906092840 | 23 | 109 | 0.0 | 0.0 | 0.00 | 0.00 | 0.00 | 84 | 1014.1 |
| 20260906092340 | 23 | 109 | 0.0 | 0.0 | 0.00 | 0.00 | 0.00 | 83 | 1014.1 |
| 20260906091839 | 23 | 109 | 0.0 | 0.0 | 0.00 | 0.00 | 0.00 | 83 | 1014.1 |
| 20260906091318 | 23 | 109 | 0.0 | 0.0 | 0.00 | 0.00 | 0.00 | 84 | 1014.0 |
| 20260906090817 | 23 | 109 | 0.0 | 0.0 | 0.00 | 0.00 | 0.00 | 83 | 1014.0 |
| 20260906090256 | 23 | 109 | 0.0 | 0.0 | 0.00 | 0.00 | 0.00 | 83 | 1013.9 |
| 20260906085755 | 23 | 109 | 0.0 | 0.0 | 0.00 | 0.00 | 0.00 | 83 | 1014.1 |
| 20260906085234 | 23 | 109 | 0.0 | 0.0 | 0.00 | 0.00 | 0.00 | 83 | 1014.0 |
| 20260906084734 | 23 | 109 | 0.0 | 0.0 | 0.00 | 0.00 | 0.00 | 83 | 1014.1 |
| 20260906084233 | 23 | 109 | 0.0 | 0.0 | 0.00 | 0.00 | 0.00 | 83 | 1014.0 |
| 20260906083733 | 23 | 109 | 0.0 | 0.0 | 0.00 | 0.00 | 0.00 | 83 | 1013.9 |
| 20260906083232 | 23 | 109 | 0.0 | 0.0 | 0.00 | 0.00 | 0.00 | 83 | 1013.8 |
| 20260906082732 | 23 | 109 | 0.0 | 0.0 | 0.00 | 0.00 | 0.00 | 82 | 1013.8 |
| 20260906082210 | 23 | 109 | 0.0 | 0.0 | 0.00 | 0.00 | 0.00 | 82 | 1013.8 |
| 20260906081710 | 23 | 109 | 0.0 | 0.0 | 0.00 | 0.00 | 0.00 | 83 | 1013.7 |
| 20260906081210 | 23 | 109 | 0.0 | 0.0 | 0.00 | 0.00 | 0.00 | 83 | 1013.8 |
| 20260906080648 | 23 | 109 | 0.0 | 0.0 | 0.00 | 0.00 | 0.00 | 83 | 1013.9 |
| 20260906080148 | 23 | 109 | 0.0 | 0.0 | 0.00 | 0.00 | 0.00 | 83 | 1013.9 |
| 20260906075647 | 23 | 109 | 0.0 | 0.0 | 0.00 | 0.00 | 0.00 | 82 | 1013.9 |
| 20260906075147 | 23 | 109 | 0.0 | 0.0 | 0.00 | 0.00 | 0.00 | 82 | 1013.8 |
| 20260906074646 | 24 | 109 | 0.0 | 0.0 | 0.00 | 0.00 | 0.00 | 82 | 1013.8 |
| 20260906074146 | 24 | 109 | 0.0 | 0.0 | 0.00 | 0.00 | 0.00 | 82 | 1013.8 |
| 20260906073645 | 24 | 109 | 0.0 | 0.0 | 0.00 | 0.00 | 0.00 | 82 | 1013.8 |
| 20260906073145 | 24 | 109 | 0.0 | 0.0 | 0.00 | 0.00 | 0.00 | 82 | 1013.8 |
| 20260906072623 | 24 | 109 | 0.0 | 0.0 | 0.00 | 0.00 | 0.00 | 82 | 1013.7 |
| 20260906072123 | 24 | 109 | 0.0 | 0.0 | 0.00 | 0.00 | 0.00 | 82 | 1013.7 |
| 20260906071602 | 24 | 109 | 0.0 | 0.0 | 0.00 | 0.00 | 0.00 | 82 | 1013.8 |
| 20260906071101 | 24 | 109 | 0.0 | 0.0 | 0.00 | 0.00 | 0.00 | 82 | 1013.9 |
| 20260906070540 | 24 | 109 | 0.0 | 0.0 | 0.00 | 0.00 | 0.00 | 82 | 1013.9 |
| 20260906070039 | 24 | 109 | 0.0 | 0.0 | 0.00 | 0.00 | 0.00 | 82 | 1013.9 |
| 20260906065538 | 24 | 109 | 0.0 | 0.0 | 0.00 | 0.00 | 0.00 | 82 | 1013.8 |
| 20260906065038 | 24 | 109 | 0.0 | 0.0 | 0.00 | 0.00 | 0.00 | 82 | 1013.9 |
| 20260906064538 | 24 | 112 | 0.0 | 0.0 | 0.00 | 0.00 | 0.00 | 82 | 1014.0 |
| 20260906064037 | 24 | 112 | 0.0 | 0.0 | 0.00 | 0.00 | 0.00 | 82 | 1014.0 |
| 20260906063515 | 24 | 112 | 0.0 | 0.0 | 0.00 | 0.00 | 0.00 | 82 | 1014.0 |
| 20260906063015 | 24 | 112 | 0.0 | 0.0 | 0.00 | 0.00 | 0.00 | 81 | 1014.0 |
| 20260906062514 | 24 | 112 | 0.0 | 0.0 | 0.00 | 0.00 | 0.00 | 81 | 1014.0 |
| 20260906062014 | 24 | 112 | 0.0 | 0.0 | 0.00 | 0.00 | 0.00 | 81 | 1014.0 |
| 20260906061453 | 24 | 112 | 0.0 | 0.0 | 0.00 | 0.00 | 0.00 | 80 | 1014.1 |
| 20260906060952 | 24 | 112 | 0.0 | 0.0 | 0.00 | 0.00 | 0.00 | 80 | 1014.1 |
| 20260906060452 | 24 | 112 | 0.0 | 0.0 | 0.00 | 0.00 | 0.00 | 80 | 1014.1 |
| 20260906055951 | 24 | 112 | 0.0 | 0.0 | 0.00 | 0.00 | 0.00 | 80 | 1014.1 |
| 20260906055451 | 24 | 112 | 0.0 | 0.0 | 0.00 | 0.00 | 0.00 | 80 | 1014.2 |
| 20260906054950 | 25 | 112 | 0.0 | 0.0 | 0.00 | 0.00 | 0.00 | 80 | 1014.1 |
| 20260906054429 | 25 | 112 | 0.0 | 0.0 | 0.00 | 0.00 | 0.00 | 80 | 1014.1 |
| 20260906053907 | 25 | 112 | 0.0 | 0.0 | 0.00 | 0.00 | 0.00 | 80 | 1014.2 |
| 20260906053406 | 25 | 112 | 0.0 | 0.0 | 0.00 | 0.00 | 0.00 | 80 | 1014.2 |
| 20260906052845 | 25 | 112 | 0.0 | 0.0 | 0.00 | 0.00 | 0.00 | 80 | 1014.2 |
| 20260906052344 | 25 | 112 | 0.0 | 0.0 | 0.00 | 0.00 | 0.00 | 80 | 1014.2 |
| 20260906051844 | 25 | 112 | 0.0 | 0.0 | 0.00 | 0.00 | 0.00 | 80 | 1014.2 |
| 20260906051343 | 25 | 112 | 0.0 | 0.0 | 0.00 | 0.00 | 0.00 | 79 | 1014.2 |
| 20260906050843 | 25 | 112 | 0.0 | 0.0 | 0.00 | 0.00 | 0.00 | 79 | 1014.3 |
| 20260906050342 | 25 | 112 | 0.0 | 0.0 | 0.00 | 0.00 | 0.00 | 79 | 1014.2 |
| 20260906045842 | 25 | 112 | 0.0 | 0.0 | 0.00 | 0.00 | 0.00 | 79 | 1014.2 |
| 20260906045341 | 25 | 112 | 0.0 | 0.0 | 0.00 | 0.00 | 0.00 | 80 | 1014.2 |
| 20260906044841 | 25 | 112 | 0.0 | 0.0 | 0.00 | 0.00 | 0.00 | 79 | 1014.2 |
| 20260906044340 | 25 | 112 | 0.0 | 0.0 | 0.00 | 0.00 | 0.00 | 79 | 1014.2 |
| 20260906043840 | 25 | 112 | 0.0 | 0.0 | 0.00 | 0.00 | 0.00 | 78 | 1014.2 |
| 20260906043340 | 25 | 112 | 0.0 | 0.0 | 0.00 | 0.00 | 0.00 | 78 | 1014.2 |
| 20260906042840 | 25 | 112 | 0.0 | 0.0 | 0.00 | 0.00 | 0.00 | 78 | 1014.1 |
| 20260906042339 | 25 | 112 | 0.0 | 0.0 | 0.00 | 0.00 | 0.00 | 77 | 1014.2 |
| 20260906041839 | 26 | 112 | 0.0 | 0.0 | 0.00 | 0.00 | 0.00 | 77 | 1014.1 |
| 20260906041338 | 26 | 112 | 0.0 | 0.0 | 0.00 | 0.00 | 0.00 | 77 | 1014.0 |
| 20260906040838 | 26 | 112 | 0.0 | 0.0 | 0.00 | 0.00 | 0.00 | 77 | 1014.1 |
| 20260906040337 | 26 | 112 | 0.0 | 0.0 | 0.00 | 0.00 | 0.00 | 76 | 1014.1 |
| 20260906035815 | 26 | 112 | 0.0 | 0.0 | 0.00 | 0.00 | 0.00 | 77 | 1014.2 |
| 20260906035254 | 26 | 112 | 0.0 | 0.0 | 0.00 | 0.00 | 0.00 | 76 | 1014.1 |
| 20260906034753 | 26 | 112 | 0.0 | 0.0 | 0.00 | 0.00 | 0.00 | 76 | 1014.0 |
| 20260906034232 | 26 | 112 | 0.0 | 0.0 | 0.00 | 0.00 | 0.00 | 76 | 1014.1 |
| 20260906033731 | 26 | 112 | 0.0 | 0.0 | 0.00 | 0.00 | 0.00 | 76 | 1013.9 |
| 20260906033210 | 26 | 112 | 0.0 | 0.0 | 0.00 | 0.00 | 0.00 | 75 | 1013.8 |
| 20260906032710 | 26 | 112 | 0.0 | 0.0 | 0.00 | 0.00 | 0.00 | 75 | 1013.7 |
| 20260906032209 | 27 | 112 | 0.0 | 0.0 | 0.00 | 0.00 | 0.00 | 75 | 1013.6 |
| 20260906031647 | 27 | 112 | 0.0 | 0.0 | 0.00 | 0.00 | 0.00 | 74 | 1013.7 |
| 20260906031147 | 27 | 112 | 0.0 | 0.0 | 0.00 | 0.00 | 0.00 | 74 | 1013.6 |
| 20260906030647 | 27 | 112 | 0.0 | 0.0 | 0.00 | 0.00 | 0.00 | 74 | 1013.7 |
| 20260906030146 | 27 | 112 | 0.0 | 0.0 | 0.00 | 0.00 | 0.00 | 73 | 1013.5 |
| 20260906025646 | 27 | 112 | 0.0 | 0.0 | 0.00 | 0.00 | 0.00 | 73 | 1013.4 |
| 20260906025146 | 28 | 112 | 0.0 | 0.0 | 0.00 | 0.00 | 0.00 | 72 | 1013.4 |
| 20260906024645 | 28 | 112 | 0.0 | 0.0 | 0.00 | 0.00 | 0.00 | 72 | 1013.3 |
| 20260906024145 | 28 | 112 | 0.0 | 0.0 | 0.00 | 0.00 | 0.00 | 71 | 1013.2 |
| 20260906023644 | 28 | 112 | 0.0 | 0.0 | 0.00 | 0.00 | 0.00 | 71 | 1013.3 |
| 20260906023144 | 28 | 112 | 0.0 | 0.0 | 0.00 | 0.00 | 0.00 | 70 | 1013.2 |
| 20260906022643 | 28 | 112 | 0.0 | 0.0 | 0.00 | 0.00 | 0.00 | 69 | 1013.1 |
| 20260906022143 | 28 | 112 | 0.0 | 0.0 | 0.00 | 0.00 | 0.00 | 69 | 1013.0 |
| 20260906021642 | 29 | 112 | 0.0 | 0.0 | 0.00 | 0.00 | 0.00 | 68 | 1013.1 |
| 20260906021141 | 29 | 112 | 0.0 | 0.0 | 0.00 | 0.00 | 0.00 | 68 | 1012.9 |
| 20260906020641 | 29 | 112 | 0.0 | 0.0 | 0.00 | 0.00 | 0.00 | 67 | 1012.8 |
| 20260906020141 | 29 | 112 | 0.0 | 0.0 | 0.00 | 0.00 | 0.00 | 67 | 1012.7 |
| 20260906015640 | 30 | 112 | 0.0 | 0.0 | 0.00 | 0.00 | 0.00 | 66 | 1012.7 |
| 20260906015139 | 30 | 112 | 0.0 | 0.0 | 0.00 | 0.00 | 0.00 | 66 | 1012.7 |
| 20260906014638 | 30 | 112 | 0.0 | 0.0 | 0.00 | 0.00 | 0.00 | 65 | 1012.6 |
| 20260906014138 | 30 | 112 | 0.0 | 0.0 | 0.00 | 0.00 | 0.00 | 64 | 1012.7 |
| 20260906013638 | 30 | 112 | 0.0 | 0.0 | 0.00 | 0.00 | 0.00 | 65 | 1012.5 |
| 20260906013137 | 30 | 112 | 0.0 | 0.0 | 0.00 | 0.00 | 0.00 | 64 | 1012.5 |
| 20260906012637 | 31 | 112 | 0.0 | 0.0 | 0.00 | 0.00 | 0.00 | 63 | 1012.5 |
| 20260906012136 | 31 | 112 | 0.0 | 0.0 | 0.00 | 0.00 | 0.00 | 63 | 1012.4 |
| 20260906011636 | 31 | 112 | 0.0 | 0.0 | 0.00 | 0.00 | 0.00 | 62 | 1012.4 |
| 20260906011135 | 31 | 112 | 0.0 | 0.0 | 0.00 | 0.00 | 0.00 | 62 | 1012.4 |
| 20260906010635 | 31 | 112 | 0.0 | 0.0 | 0.00 | 0.00 | 0.00 | 62 | 1012.4 |
| 20260906010134 | 31 | 112 | 0.0 | 0.0 | 0.00 | 0.00 | 0.00 | 61 | 1012.3 |
| 20260906005613 | 32 | 112 | 0.0 | 0.0 | 0.00 | 0.00 | 0.00 | 61 | 1012.3 |
| 20260906005112 | 32 | 112 | 0.0 | 0.0 | 0.00 | 0.00 | 0.00 | 60 | 1012.4 |
| 20260906004612 | 32 | 97 | 0.0 | 0.0 | 0.00 | 0.00 | 0.00 | 61 | 1012.3 |
| 20260906004111 | 32 | 97 | 0.0 | 0.0 | 0.00 | 0.00 | 0.00 | 60 | 1012.3 |
| 20260906003550 | 33 | 97 | 0.0 | 0.0 | 0.00 | 0.00 | 0.00 | 58 | 1012.3 |
| 20260906003050 | 33 | 97 | 0.0 | 0.0 | 0.00 | 0.00 | 0.00 | 58 | 1012.3 |
| 20260906002031 | 33 | 97 | 0.0 | 0.0 | 0.00 | 0.00 | 0.00 | 59 | 1012.3 |
| 20260906001510 | 33 | 97 | 0.0 | 0.0 | 0.00 | 0.00 | 0.00 | 58 | 1012.2 |
| 20260906001009 | 34 | 97 | 0.0 | 0.0 | 0.00 | 0.00 | 0.00 | 56 | 1012.2 |
| 20260906000509 | 34 | 97 | 0.0 | 0.0 | 0.00 | 0.00 | 0.00 | 54 | 1012.2 |
| 20260906000008 | 35 | 97 | 0.0 | 0.0 | 0.00 | 0.00 | 0.00 | 54 | 1012.2 |
| 20260905235508 | 35 | 97 | 0.0 | 0.0 | 0.00 | 0.00 | 0.00 | 54 | 1012.3 |
| 20260905235008 | 35 | 97 | 0.0 | 0.0 | 0.00 | 0.00 | 0.00 | 54 | 1012.3 |
| 20260905234507 | 35 | 97 | 0.0 | 0.0 | 0.00 | 0.00 | 0.00 | 53 | 1012.3 |
| 20260905234006 | 35 | 97 | 0.0 | 0.0 | 0.00 | 0.00 | 0.00 | 51 | 1012.3 |
| 20260905233506 | 36 | 97 | 0.0 | 0.0 | 0.00 | 0.00 | 0.00 | 53 | 1012.2 |
| 20260905233006 | 36 | 97 | 0.0 | 0.0 | 0.00 | 0.00 | 0.00 | 50 | 1012.3 |
| 20260905232505 | 36 | 97 | 0.0 | 0.0 | 0.00 | 0.00 | 0.00 | 49 | 1012.2 |
| 20260905232005 | 36 | 97 | 0.0 | 1.6 | 0.00 | 0.00 | 0.00 | 49 | 1012.2 |
| 20260905231504 | 36 | 97 | 0.0 | 4.8 | 0.00 | 0.00 | 0.00 | 50 | 1012.1 |
| 20260905231004 | 36 | 91 | 1.6 | 6.4 | 0.00 | 0.00 | 0.00 | 46 | 1012.1 |
| 20260905230503 | 36 | 89 | 3.2 | 6.4 | 0.00 | 0.00 | 0.00 | 45 | 1012.1 |
| 20260905230003 | 36 | 93 | 0.0 | 6.4 | 0.00 | 0.00 | 0.00 | 46 | 1012.2 |
| 20260905225502 | 36 | 91 | 1.6 | 8.0 | 0.00 | 0.00 | 0.00 | 46 | 1012.2 |
| 20260905225002 | 37 | 83 | 4.8 | 8.0 | 0.00 | 0.00 | 0.00 | 44 | 1012.2 |
| 20260905224502 | 37 | 87 | 3.2 | 6.4 | 0.00 | 0.00 | 0.00 | 45 | 1012.2 |
| 20260905224001 | 37 | 99 | 3.2 | 4.8 | 0.00 | 0.00 | 0.00 | 45 | 1012.2 |
| 20260905223500 | 37 | 103 | 1.6 | 8.0 | 0.00 | 0.00 | 0.00 | 45 | 1012.2 |
| 20260905223000 | 37 | 89 | 1.6 | 8.0 | 0.00 | 0.00 | 0.00 | 43 | 1012.1 |
| 20260905222500 | 37 | 114 | 0.0 | 4.8 | 0.00 | 0.00 | 0.00 | 45 | 1012.2 |
| 20260905221938 | 37 | 114 | 1.6 | 4.8 | 0.00 | 0.00 | 0.00 | 42 | 1012.2 |
| 20260905221438 | 37 | 114 | 1.6 | 4.8 | 0.00 | 0.00 | 0.00 | 44 | 1012.3 |
| 20260905220937 | 37 | 115 | 0.0 | 4.8 | 0.00 | 0.00 | 0.00 | 44 | 1012.4 |
| 20260905220436 | 36 | 114 | 3.2 | 6.4 | 0.00 | 0.00 | 0.00 | 43 | 1012.4 |
| 20260905215936 | 36 | 114 | 1.6 | 6.4 | 0.00 | 0.00 | 0.00 | 45 | 1012.5 |
| 20260905215435 | 36 | 106 | 3.2 | 9.7 | 0.00 | 0.00 | 0.00 | 44 | 1012.6 |
| 20260905214935 | 36 | 78 | 4.8 | 14.5 | 0.00 | 0.00 | 0.00 | 43 | 1012.6 |
| 20260905214434 | 36 | 81 | 4.8 | 14.5 | 0.00 | 0.00 | 0.00 | 43 | 1012.7 |
| 20260905213934 | 36 | 80 | 3.2 | 9.7 | 0.00 | 0.00 | 0.00 | 43 | 1012.9 |
| 20260905213412 | 36 | 95 | 1.6 | 8.0 | 0.00 | 0.00 | 0.00 | 44 | 1013.0 |
| 20260905212851 | 36 | 105 | 3.2 | 8.0 | 0.00 | 0.00 | 0.00 | 43 | 1012.9 |
| 20260905212329 | 37 | 100 | 1.6 | 8.0 | 0.00 | 0.00 | 0.00 | 43 | 1013.0 |
| 20260905211829 | 37 | 89 | 1.6 | 8.0 | 0.00 | 0.00 | 0.00 | 44 | 1013.1 |
| 20260905211329 | 37 | 98 | 0.0 | 9.7 | 0.00 | 0.00 | 0.00 | 43 | 1013.1 |
| 20260905210828 | 37 | 57 | 6.4 | 9.7 | 0.00 | 0.00 | 0.00 | 43 | 1013.2 |
| 20260905210328 | 37 | 84 | 1.6 | 9.7 | 0.00 | 0.00 | 0.00 | 47 | 1013.3 |
| 20260905205827 | 37 | 76 | 6.4 | 8.0 | 0.00 | 0.00 | 0.00 | 44 | 1013.4 |
| 20260905205327 | 37 | 76 | 4.8 | 9.7 | 0.00 | 0.00 | 0.00 | 45 | 1013.4 |
| 20260905204827 | 37 | 57 | 8.0 | 9.7 | 0.00 | 0.00 | 0.00 | 43 | 1013.3 |
| 20260905204326 | 37 | 72 | 3.2 | 9.7 | 0.00 | 0.00 | 0.00 | 42 | 1013.3 |
| 20260905203826 | 37 | 95 | 3.2 | 9.7 | 0.00 | 0.00 | 0.00 | 43 | 1013.5 |
| 20260905203326 | 37 | 95 | 4.8 | 9.7 | 0.00 | 0.00 | 0.00 | 45 | 1013.5 |
| 20260905202825 | 37 | 67 | 8.0 | 9.7 | 0.00 | 0.00 | 0.00 | 43 | 1013.7 |
| 20260905202306 | 37 | 103 | 3.2 | 16.1 | 0.00 | 0.00 | 0.00 | 43 | 1013.6 |
| 20260905201804 | 38 | 97 | 3.2 | 16.1 | 0.00 | 0.00 | 0.00 | 42 | 1013.7 |
| 20260905201303 | 38 | 43 | 4.8 | 9.7 | 0.00 | 0.00 | 0.00 | 36 | 1013.8 |
| 20260905200742 | 38 | 150 | 0.0 | 8.0 | 0.00 | 0.00 | 0.00 | 39 | 1013.8 |
| 20260905200240 | 38 | 167 | 4.8 | 6.4 | 0.00 | 0.00 | 0.00 | 38 | 1013.9 |
| 20260905195740 | 38 | 88 | 1.6 | 6.4 | 0.00 | 0.00 | 0.00 | 37 | 1014.1 |
| 20260905195239 | 38 | 88 | 3.2 | 6.4 | 0.00 | 0.00 | 0.00 | 36 | 1014.1 |
| 20260905194739 | 38 | 159 | 1.6 | 8.0 | 0.00 | 0.00 | 0.00 | 38 | 1014.0 |
| 20260905194238 | 38 | 158 | 3.2 | 9.7 | 0.00 | 0.00 | 0.00 | 37 | 1014.0 |
| 20260905193237 | 37 | 126 | 1.6 | 4.8 | 0.00 | 0.00 | 0.00 | 41 | 1014.1 |
| 20260905192737 | 37 | 126 | 1.6 | 3.2 | 0.00 | 0.00 | 0.00 | 41 | 1014.1 |
| 20260905192215 | 37 | 127 | 1.6 | 4.8 | 0.00 | 0.00 | 0.00 | 40 | 1014.1 |
| 20260905191715 | 37 | 126 | 0.0 | 6.4 | 0.00 | 0.00 | 0.00 | 40 | 1014.2 |
| 20260905191214 | 37 | 126 | 4.8 | 6.4 | 0.00 | 0.00 | 0.00 | 41 | 1014.3 |
| 20260905190714 | 37 | 145 | 4.8 | 8.0 | 0.00 | 0.00 | 0.00 | 43 | 1014.3 |
| 20260905190213 | 37 | 127 | 3.2 | 9.7 | 0.00 | 0.00 | 0.00 | 42 | 1014.3 |
| 20260905185713 | 37 | 167 | 3.2 | 9.7 | 0.00 | 0.00 | 0.00 | 40 | 1014.2 |
| 20260905185213 | 37 | 164 | 4.8 | 9.7 | 0.00 | 0.00 | 0.00 | 41 | 1014.4 |
| 20260905184712 | 37 | 163 | 4.8 | 9.7 | 0.00 | 0.00 | 0.00 | 42 | 1014.4 |
| 20260905184212 | 37 | 149 | 0.0 | 4.8 | 0.00 | 0.00 | 0.00 | 44 | 1014.5 |
| 20260905183650 | 36 | 130 | 1.6 | 6.4 | 0.00 | 0.00 | 0.00 | 42 | 1014.5 |
| 20260905183149 | 36 | 107 | 1.6 | 6.4 | 0.00 | 0.00 | 0.00 | 41 | 1014.6 |
| 20260905182649 | 36 | 107 | 3.2 | 8.0 | 0.00 | 0.00 | 0.00 | 41 | 1014.8 |
| 20260905182148 | 36 | 140 | 3.2 | 9.7 | 0.00 | 0.00 | 0.00 | 41 | 1014.8 |
| 20260905181648 | 36 | 140 | 6.4 | 9.7 | 0.00 | 0.00 | 0.00 | 43 | 1014.9 |
| 20260905181147 | 36 | 109 | 1.6 | 9.7 | 0.00 | 0.00 | 0.00 | 43 | 1015.0 |
| 20260905180626 | 35 | 122 | 1.6 | 11.3 | 0.00 | 0.00 | 0.00 | 44 | 1015.1 |
| 20260905180104 | 35 | 159 | 4.8 | 11.3 | 0.00 | 0.00 | 0.00 | 46 | 1015.0 |